User: anonymous   Login
Location: Boiro
(42.6475°N, 8.8834°W)
Time: 06:55:28
(UTC+01:00)
Language:

CUBEBUG 2 - Orbit

View from above orbital plane
View from above orbital plane
View from above satellite
View from above satellite

Ground track
Ground track

The orbit data is extracted from the following two-line orbital elements,

1 39440U 13066AA  22027.38353706  .00000637  00000-0  94201-4 0  9990
2 39440  97.7079 351.0853 0078280 228.4708 130.9770 14.76514210439466
Epoch (UTC): 27 January 2022 09:12:17
Eccentricity: 0.0078280
inclination: 97.7079°
perigee height: 585 km
apogee height: 695 km
right ascension of ascending node: 351.0853°
argument of perigee: 228.4708°
revolutions per day: 14.76514210
mean anomaly at epoch: 130.9770°
orbit number at epoch: 43946

The dashed part of the orbit path shows where the satellite is in the earth's shadow,  

DLR